Tracking 25656 objects as of 21-May-2022
HD Live streaming from Space Station
objects crossing your sky now

FLOCK 4S 20

Track FLOCK 4S 20 now!
10-day predictions
FLOCK 4S 20 is classified as:


NORAD ID: 47540
Int'l Code: 2021-006EA
Perigee: 518.9 km
Apogee: 533.5 km
Inclination: 97.4 °
Period: 95.0 minutes
Semi major axis: 6897 km
RCS: Unknown
Launch date: January 24, 2021
Source: United States (US)
Launch site: AIR FORCE EASTERN TEST RANGE (AFETR)
aabbcc
Your satellite tracking list
Your tracking list is empty




NASA's NSSDC Master Catalog

Two Line Element Set (TLE):
1 47540U 21006EA  22140.41999687  .00020055  00000-0  10552-2 0  9998
2 47540  97.4476 200.3632 0010522  22.9314 337.2387 15.15629728 72093
Source of the keplerian elements: AFSPC